Regional Weather Roundup
Issued by NWS

Home | Current Version | Previous Version | Graphics & Text | Print | Product List | Glossary On
Versions: 1 2 3 4 5 6 7 8 9 10 11 12 13 14 15 16 17 18 19 20 21 22 23 24 25 26 27 28 29 30 31 32 33 34 35 36 37 38 39 40 41 42 43 44 45 46 47 48 49 50
663
ASUS45 KTFX 290810
RWRMT
MONTANA REGIONAL WEATHER ROUNDUP
NATIONAL WEATHER SERVICE GREAT FALLS MT
200 AM MDT MON MAY 29 2017

NOTE: "FAIR" INDICATES FEW OR NO CLOUDS BELOW 12000 FEET WITH NO
SIGNIFICANT WEATHER AND/OR OBSTRUCTIONS TO VISIBILITY.

MTZ001>007-043-290900-
WEST OF THE DIVIDE

CITY           SKY/WX    TMP DP  RH WIND       PRES   REMARKS
KALISPELL      PTCLDY    50  45  83 CALM      30.16R
MISSOULA       PTCLDY    64  41  42 E7        30.18R
BUTTE          CLEAR     42  38  85 SE5       30.30S
MULLAN PASS    CLEAR     59  35  40 CALM      30.26F
ANACONDA         N/A     45  37  76 SW6       30.28S
DEER LODGE       N/A     46  39  76 CALM      30.29S
EUREKA           N/A     54  43  66 CALM      30.15R
HAMILTON         N/A     54  41  62 S6        30.19R
RONAN            N/A     53  44  71 CALM      30.19R
$$

MTZ008-052>055-290900-
SOUTHWEST MONTANA

CITY           SKY/WX    TMP DP  RH WIND       PRES   REMARKS
BOZEMAN        CLOUDY    47  41  80 S6        30.27R
DILLON         CLEAR     47  38  71 S7        30.27R
ENNIS          PTCLDY    43  36  75 CALM      30.33S
THREE FORKS      N/A     46  42  86 CALM      30.22S
$$

MTZ009-010-012-014-046-048-049-054-290900-
EAST SLOPES AND CENTRAL MONTANA

CITY           SKY/WX    TMP DP  RH WIND       PRES   REMARKS
CUT BANK       MOCLDY    50  41  71 NE6       30.24F
GREAT FALLS    CLEAR     46  44  93 SW6       30.25S
MALMSTROM AFB  CLEAR     44  43  97 SW5       30.25R
HELENA         CLEAR     52  44  74 CALM      30.24S
CHOTEAU          N/A     48  45  87 CALM      30.27S
CONRAD           N/A     44  44 100 CALM      30.25R
$$

MTZ011-013-016-021-045-047-050-051-290900-
NORTH CENTRAL MONTANA

CITY           SKY/WX    TMP DP  RH WIND       PRES   REMARKS
HAVRE          CLEAR     43  31  62 N5        30.23R
LEWISTOWN      PTCLDY    42  38  85 SE5       30.25S
N BAR RANCH    MOCLDY    45  36  70 W6        30.28S
CHINOOK          N/A     43  32  65 CALM      30.23S
$$

MTZ017>020-022>027-061-062-290900-
NORTHEAST MONTANA

CITY           SKY/WX    TMP DP  RH WIND       PRES   REMARKS
GLASGOW        CLEAR     47  31  53 N9        30.18R
JORDAN           N/A     41  25  53 CALM      30.19R
SIDNEY         CLEAR     45  35  68 NW13      30.11R
WOLF POINT     PTCLDY    50  33  52 N9        30.15R
MALTA          CLEAR     45  32  61 N9        30.21R
PLENTYWOOD       N/A     45  36  70 NW8       30.11R
POPLAR           N/A     46  32  57 NE3       30.15R
$$

MTZ028>42-056>058-290900-
SOUTHCENTRAL AND SOUTHEAST MONTANA

CITY           SKY/WX    TMP DP  RH WIND       PRES   REMARKS
BAKER          PTCLDY    44  33  65 W5        30.14R
BILLINGS       PTCLDY    51  43  74 NW6       30.22S
LIVINGSTON     CLOUDY    42  40  92 W3        30.28R
MILES CITY     CLEAR     44  26  49 NW7       30.15S
BIG TIMBER     MOCLDY    46  43  87 W9        30.28S
FORSYTH          N/A     54  28  37 CALM      30.18R
LAUREL           N/A     50  42  73 CALM      30.19F
ROUNDUP          N/A     52  32  46 NW5       30.12S
$$

REGIONAL REPORTS...DAKOTAS

CITY           SKY/WX    TMP DP  RH WIND       PRES   REMARKS
WILLISTON      PTCLDY    50  39  66 NW12      30.09R
MINOT          CLOUDY    53  43  68 NW18G28   29.97R
DICKINSON      CLEAR     39  35  86 NW10      30.06R
BEACH            N/A     43  37  81 NW7       30.14R
CROSBY           N/A     46  43  87 NW14      30.07R
TIOGA            N/A     46  46 100 NW14G20   30.06S
WATFORD CITY     N/A     46  41  81 NW7       30.08R
BISMARCK       PTCLDY    51  42  71 NW12      29.98R
GRAND FORKS    CLOUDY    52  49  89 NW12      29.80R
FARGO          CLOUDY    52  49  89 NW15      29.80S
BUFFALO SD       N/A     41  33  73 W6        30.06R
RAPID CITY     CLEAR     41  37  86 N12       30.11R
$$

REGIONAL REPORTS...WYOMING/IDAHO/WASHINGTON

CITY           SKY/WX    TMP DP  RH WIND       PRES   REMARKS
GILLETTE       PTCLDY    47  42  83 W10       30.19R
SHERIDAN       PTCLDY    49  40  71 NW7       30.21R
BUFFALO WY     CLEAR     52  36  54 W12       30.24R
CODY           CLOUDY    53  42  66 SW5       30.28F
YELLOWSTONE LA   N/A     30  30 100 CALM      30.39S
IDAHO FALLS    CLEAR     48  43  82 CALM      30.22S
SALMON         CLEAR     50  39  66 CALM      30.18R
BOISE          CLEAR     63  43  48 SE7       30.07F
SPOKANE        CLEAR     63  49  60 CALM      30.08R
$$

REGIONAL REPORTS...ALBERTA

CITY           SKY/WX    TMP DP  RH WIND       PRES   REMARKS
EDMONTON       CLEAR     45  34  65 E3        30.22F
CALGARY        PTCLDY    50  36  57 S7        30.25S
LETHBRIDGE     CLEAR     48  41  76 S6        30.23S
MEDICINE HAT   CLEAR     46  32  57 CALM      30.22S
WATERTON GATE    N/A     48  43  81 S6          N/A
CARDSTON         N/A     50  43  76 S5          N/A
MILK RIVER       N/A     45  39  81 NW2         N/A
ONEFOUR          N/A     43  28  56 NE14        N/A
$$

REGIONAL REPORTS...SASKATCHEWAN

CITY           SKY/WX    TMP DP  RH WIND       PRES   REMARKS
SWIFT CURRENT  CLEAR     45  34  65 NW3       30.20R
REGINA         MOCLDY    50  41  71 NW12      30.10S
SASKATOON      CLEAR     37  36  93 W10       30.18S WCI  30
CYPRESS HILLS    N/A     39  28  65 NE2         N/A
VAL MARIE        N/A     37  30  75 N8          N/A  WCI  31
ROCKGLEN         N/A     41  36  81 NW8         N/A
ASSINIBOIA       N/A     41  37  87 SW1         N/A
$$




USA.gov is the U.S. government's official web portal to all federal, state and local government web resources and services.